VE3KSR Weather Reports


Display with metric or nautical units.
time (UTC)temp
F
wind
direction
speed
MPH
gust
MPH
rain 1hr
in
rain 24hr
in
rain mn
in
humidity
%
barometer
mb
20191207212342 26 219 8.0 10.0 4.87 0.00 0.00 62 1030.2
20191207211842 26 231 9.0 11.0 4.87 0.00 0.00 62 1030.2
20191207211342 26 221 10.0 10.0 4.87 0.00 0.00 62 1030.0
20191207210842 26 222 9.0 10.0 4.87 0.00 0.00 63 1030.0
20191207210342 26 222 7.0 9.0 4.87 0.00 0.00 63 1029.8
20191207205842 26 215 8.0 10.0 4.87 0.00 0.00 63 1029.9
20191207205342 26 211 8.0 10.0 4.87 0.00 0.00 62 1029.9
20191207204842 27 222 8.0 11.0 4.87 0.00 0.00 61 1029.9
20191207204342 27 225 10.0 11.0 4.87 0.00 0.00 61 1029.9
20191207203842 27 201 9.0 10.0 4.87 0.00 0.00 61 1029.9
20191207203342 27 214 8.0 10.0 4.87 0.00 0.00 60 1030.0
20191207203156 26 214 7.0 9.0 4.87 0.00 0.00 62 1030.0
20191207202842 27 201 8.0 10.0 4.87 0.00 0.00 62 1030.0
20191207202342 26 214 7.0 9.0 4.87 0.00 0.00 62 1030.0
20191207201842 26 214 6.0 7.0 4.87 0.00 0.00 63 1030.3
20191207201342 26 232 9.0 10.0 4.87 0.00 0.00 63 1030.1
20191207200842 26 226 9.0 11.0 4.87 0.00 0.00 62 1030.2
20191207200342 26 240 6.0 9.0 4.87 0.00 0.00 62 1030.2
20191207195842 26 236 9.0 11.0 4.87 0.00 0.00 62 1030.3
20191207195342 26 248 10.0 12.0 4.87 0.00 0.00 62 1030.4
20191207194842 26 245 10.0 13.0 4.87 0.00 0.00 61 1030.3
20191207194428 26 246 10.0 12.0 4.87 0.00 0.00 61 1030.1
20191207194343 26 246 10.0 12.0 4.87 0.00 0.00 61 1030.1
20191207193842 26 243 9.0 13.0 4.87 0.00 0.00 60 1030.1
20191207193342 26 238 10.0 13.0 4.87 0.00 0.00 60 1029.9
20191207192842 26 233 12.0 15.0 4.87 0.00 0.00 60 1029.8
20191207191342 26 278 11.0 13.0 4.87 0.00 0.00 60 1030.0
20191207190842 26 287 10.0 12.0 4.87 0.00 0.00 60 1030.0
20191207190342 26 280 12.0 15.0 4.87 0.00 0.00 59 1030.1
20191207185843 26 274 8.0 10.0 4.87 0.00 0.00 59 1030.2
20191207185342 26 238 10.0 14.0 4.87 0.00 0.00 57 1030.1
20191207184843 27 236 13.0 16.0 4.87 0.00 0.00 56 1030.3
20191207184343 27 228 11.0 14.0 4.87 0.00 0.00 53 1030.2
20191207183842 27 242 9.0 13.0 4.87 0.00 0.00 56 1030.2
20191207183342 27 266 13.0 18.0 4.87 0.00 0.00 55 1030.1
20191207182842 27 276 10.0 13.0 4.87 0.00 0.00 60 1030.1
20191207182343 27 260 9.0 12.0 4.87 0.00 0.00 57 1030.0
20191207181842 26 284 9.0 10.0 4.87 0.00 0.00 60 1030.0
20191207181458 26 239 11.0 15.0 4.87 0.00 0.00 59 1029.9
20191207181342 26 239 11.0 15.0 4.87 0.00 0.00 59 1029.9
20191207180842 26 274 11.0 15.0 4.87 0.00 0.00 59 1029.8
20191207180343 26 273 12.0 14.0 4.87 0.00 0.00 59 1029.8
20191207175842 25 263 13.0 17.0 4.87 0.00 0.00 58 1029.9
20191207175342 26 283 12.0 16.0 4.87 0.00 0.00 60 1029.9
20191207174843 26 266 10.0 14.0 4.87 0.00 0.00 60 1030.0
20191207174531 26 273 9.0 12.0 4.87 0.00 0.00 60 1030.1
20191207174342 26 273 9.0 12.0 4.87 0.00 0.00 60 1030.1
20191207173857 25 0 0.0 0.0 4.87 0.00 0.00 62 1030.3
20191207173842 25 277 11.0 16.0 4.87 0.00 0.00 60 1030.3
20191207173342 25 0 0.0 0.0 4.87 0.00 0.00 62 1030.3
20191207172842 25 0 0.0 0.0 4.87 0.00 0.00 65 1030.4
20191207172343 25 0 0.0 0.0 4.87 0.00 0.00 63 1030.6
20191207171843 25 0 0.0 0.0 4.87 0.00 0.00 65 1030.7
20191207171344 25 0 0.0 0.0 4.87 0.00 0.00 66 1030.7
20191207170845 25 0 0.0 0.0 4.87 0.00 0.00 65 1030.7
20191207170343 25 0 0.0 0.0 4.87 0.00 0.00 63 1030.9
20191207165843 25 0 0.0 0.0 4.87 0.00 0.00 65 1031.0
20191207165343 25 0 0.0 0.0 4.87 0.00 0.00 62 1031.0
20191207164843 25 0 0.0 0.0 4.87 0.00 0.00 63 1031.0
20191207164343 25 0 0.0 0.0 4.87 0.00 0.00 63 1031.1
20191207163843 25 0 0.0 0.0 4.87 0.00 0.00 59 1031.1
20191207163343 25 0 0.0 0.0 4.87 0.00 0.00 66 1031.1
20191207162843 24 0 0.0 0.0 4.87 0.00 0.00 68 1031.1
20191207162343 24 0 0.0 0.0 4.87 0.00 0.00 67 1031.1
20191207161843 24 0 0.0 0.0 4.87 0.00 0.00 66 1031.0
20191207161343 24 0 0.0 0.0 4.87 0.00 0.00 66 1030.9
20191207160843 24 0 0.0 0.0 4.87 0.00 0.00 66 1030.9
20191207160343 24 0 0.0 0.0 4.87 0.00 0.00 70 1030.7
20191207155843 24 0 0.0 0.0 4.87 0.00 0.00 75 1030.6
20191207155343 24 0 0.0 0.0 4.87 0.00 0.00 70 1030.7
20191207154843 24 0 0.0 0.0 4.87 0.00 0.00 69 1030.7
20191207154343 24 0 0.0 0.0 4.87 0.00 0.00 70 1030.7
20191207153843 24 0 0.0 0.0 4.87 0.00 0.00 69 1030.8
20191207153345 23 0 0.0 0.0 4.87 0.00 0.00 72 1030.8
20191207152843 23 0 0.0 0.0 4.87 0.00 0.00 72 1030.7
20191207152343 23 0 0.0 0.0 4.87 0.00 0.00 75 1030.7
20191207151843 23 0 0.0 0.0 4.87 0.00 0.00 76 1030.8
20191207151343 23 0 0.0 0.0 4.87 0.00 0.00 73 1030.8
20191207150843 23 0 0.0 0.0 4.87 0.00 0.00 77 1030.8
20191207150343 23 0 0.0 0.0 4.87 0.00 0.00 78 1030.8
20191207145843 22 0 0.0 0.0 4.87 0.00 0.00 78 1030.7
20191207145343 22 0 0.0 0.0 4.87 0.00 0.00 77 1030.8
20191207144843 22 0 0.0 0.0 4.87 0.00 0.00 78 1030.7
20191207144343 22 0 0.0 0.0 4.87 0.00 0.00 78 1030.7
20191207144012 22 0 0.0 0.0 4.87 0.00 0.00 78 1030.6
20191207143844 22 0 0.0 0.0 4.87 0.00 0.00 78 1030.6
20191207143343 22 0 0.0 0.0 4.87 0.00 0.00 77 1030.4
20191207142843 22 0 0.0 0.0 4.87 0.00 0.00 77 1030.6
20191207142344 22 0 0.0 0.0 4.87 0.00 0.00 77 1030.4
20191207141843 21 0 0.0 0.0 4.87 0.00 0.00 77 1030.4
20191207141343 21 0 0.0 0.0 4.87 0.00 0.00 77 1030.4
20191207140843 21 0 0.0 0.0 4.87 0.00 0.00 77 1030.4
20191207140343 21 0 0.0 0.0 4.87 0.00 0.00 77 1030.3
20191207135843 21 0 0.0 0.0 4.87 0.00 0.00 77 1030.2
20191207135344 21 0 0.0 0.0 4.87 0.00 0.00 77 1030.1
20191207134843 21 0 0.0 0.0 4.87 0.00 0.00 77 1030.2
20191207134343 21 0 0.0 0.0 4.87 0.00 0.00 77 1030.0
20191207133844 21 0 0.0 0.0 4.87 0.00 0.00 77 1029.9
20191207133343 21 0 0.0 0.0 4.87 0.00 0.00 77 1029.8
20191207132843 21 0 0.0 0.0 4.87 0.00 0.00 76 1029.5
20191207132343 21 0 0.0 0.0 4.87 0.00 0.00 76 1029.2
20191207131843 21 0 0.0 0.0 4.87 0.00 0.00 76 1029.0
20191207131343 21 0 0.0 0.0 4.87 0.00 0.00 76 1028.9
20191207130843 21 0 0.0 0.0 4.87 0.00 0.00 76 1028.8
20191207130344 21 0 0.0 0.0 4.87 0.00 0.00 76 1028.9
20191207125844 21 0 0.0 0.0 4.87 0.00 0.00 75 1028.9
20191207125343 21 0 0.0 0.0 4.87 0.00 0.00 75 1028.8
20191207124843 21 0 0.0 0.0 4.87 0.00 0.00 75 1028.8
20191207124343 21 0 0.0 0.0 4.87 0.00 0.00 75 1028.8
20191207124013 21 0 0.0 0.0 4.87 0.00 0.00 75 1028.9
20191207123844 21 0 0.0 0.0 4.87 0.00 0.00 75 1028.9
20191207123344 21 0 0.0 0.0 4.87 0.00 0.00 75 1028.7
20191207122844 21 0 0.0 0.0 4.87 0.00 0.00 75 1028.7
20191207122344 21 0 0.0 0.0 4.87 0.00 0.00 75 1028.8
20191207121843 21 0 0.0 0.0 4.87 0.00 0.00 75 1028.7
20191207121343 21 0 0.0 0.0 4.87 0.00 0.00 74 1028.6
20191207120843 21 0 0.0 0.0 4.87 0.00 0.00 74 1028.6
20191207120343 21 0 0.0 0.0 4.87 0.00 0.00 74 1028.6
20191207115843 21 0 0.0 0.0 4.87 0.00 0.00 74 1028.4
20191207115343 21 0 0.0 0.0 4.87 0.00 0.00 73 1028.5
20191207114843 21 0 0.0 0.0 4.87 0.00 0.00 73 1028.5
20191207114343 21 0 0.0 0.0 4.87 0.00 0.00 73 1028.4
20191207113843 21 0 0.0 0.0 4.87 0.00 0.00 73 1028.3
20191207113343 21 0 0.0 0.0 4.87 0.00 0.00 73 1028.3
20191207112843 21 0 0.0 0.0 4.87 0.00 0.00 72 1028.3
20191207112343 21 0 0.0 0.0 4.87 0.00 0.00 72 1028.3
20191207111843 21 0 0.0 0.0 4.87 0.00 0.00 72 1028.3
20191207111343 21 0 0.0 0.0 4.87 0.00 0.00 72 1028.2
20191207110844 21 0 0.0 0.0 4.87 0.00 0.00 72 1028.2
20191207110346 21 0 0.0 0.0 4.87 0.00 0.00 72 1028.2
20191207105843 20 0 0.0 0.0 4.87 0.00 0.00 72 1028.2
20191207105343 20 0 0.0 0.0 4.87 0.00 0.00 72 1028.1
20191207104843 20 0 0.0 0.0 4.87 0.00 0.00 71 1028.2
20191207104345 20 0 0.0 0.0 4.87 0.00 0.00 71 1028.2
20191207103843 20 0 0.0 0.0 4.87 0.00 0.00 71 1028.2
20191207103343 20 0 0.0 0.0 4.87 0.00 0.00 72 1028.1
20191207102846 20 0 0.0 0.0 4.87 0.00 0.00 71 1028.2
20191207102343 20 0 0.0 0.0 4.87 0.00 0.00 71 1028.2
20191207101844 20 0 0.0 0.0 4.87 0.00 0.00 71 1028.1
20191207101343 20 0 0.0 0.0 4.87 0.00 0.00 70 1028.0
20191207100843 19 0 0.0 0.0 4.87 0.00 0.00 71 1027.9
20191207100343 20 0 0.0 0.0 4.87 0.00 0.00 71 1027.7
20191207095844 20 0 0.0 0.0 4.87 0.00 0.00 70 1027.4
20191207095343 20 0 0.0 0.0 4.87 0.00 0.00 70 1027.4
20191207094843 20 0 0.0 0.0 4.87 0.00 0.00 70 1027.3
20191207094344 20 0 0.0 0.0 4.87 0.00 0.00 70 1027.3
20191207093843 20 0 0.0 0.0 4.87 0.00 0.00 70 1027.3
20191207093343 20 0 0.0 0.0 4.87 0.00 0.00 70 1027.3
20191207092845 21 0 0.0 0.0 4.87 0.00 0.00 70 1027.3
20191207092344 21 0 0.0 0.0 4.87 0.00 0.00 69 1027.3
20191207091844 21 0 0.0 0.0 4.87 0.00 0.00 69 1027.4
20191207091345 21 0 0.0 0.0 4.87 0.00 0.00 69 1027.3
20191207090844 21 0 0.0 0.0 4.87 0.00 0.00 69 1027.2
20191207090344 22 0 0.0 0.0 4.87 0.00 0.00 69 1027.3
20191207085846 22 0 0.0 0.0 4.87 0.00 0.00 69 1027.3
20191207085344 22 0 0.0 0.0 4.87 0.00 0.00 67 1027.3
20191207084844 22 0 0.0 0.0 4.87 0.00 0.00 69 1027.2
20191207084344 22 0 0.0 0.0 4.87 0.00 0.00 65 1027.3
20191207083846 23 0 0.0 0.0 4.87 0.00 0.00 62 1027.4
20191207083344 23 0 0.0 0.0 4.87 0.00 0.00 63 1027.5
20191207082844 23 0 0.0 0.0 4.87 0.00 0.00 62 1027.5
20191207082344 23 0 0.0 0.0 4.87 0.00 0.00 71 1027.6
20191207081844 23 0 0.0 0.0 4.87 0.00 0.00 64 1027.6
20191207081345 22 0 0.0 0.0 4.87 0.00 0.00 69 1027.7
20191207080844 23 0 0.0 0.0 4.87 0.00 0.00 69 1027.9
20191207080344 23 0 0.0 0.0 4.87 0.00 0.00 67 1027.7
20191207075844 23 0 0.0 0.0 4.87 0.00 0.00 68 1027.7
20191207075346 23 0 0.0 0.0 4.87 0.00 0.00 68 1027.7
20191207074844 23 0 0.0 0.0 4.87 0.00 0.00 68 1027.7
20191207074344 23 0 0.0 0.0 4.87 0.00 0.00 69 1027.6
20191207073844 23 0 0.0 0.0 4.87 0.00 0.00 70 1027.6
20191207073344 23 0 0.0 0.0 4.87 0.00 0.00 70 1027.5
20191207072844 23 0 0.0 0.0 4.87 0.00 0.00 70 1027.3
20191207072344 23 0 0.0 0.0 4.87 0.00 0.00 70 1027.0
20191207071844 23 0 0.0 0.0 4.87 0.00 0.00 71 1026.9
20191207071344 23 0 0.0 0.0 4.87 0.00 0.00 71 1026.7
20191207070845 23 0 0.0 0.0 4.87 0.00 0.00 71 1026.5
20191207070344 23 0 0.0 0.0 4.87 0.00 0.00 71 1026.5
20191207065844 23 0 0.0 0.0 4.87 0.00 0.00 72 1026.5
20191207065344 23 0 0.0 0.0 4.87 0.00 0.00 72 1026.4
20191207064844 23 0 0.0 0.0 4.87 0.00 0.00 73 1026.4
20191207064344 23 0 0.0 0.0 4.87 0.00 0.00 74 1026.4
20191207063844 23 0 0.0 0.0 4.87 0.00 0.00 75 1026.4
20191207063344 23 0 0.0 0.0 4.87 0.00 0.00 76 1026.4
20191207062844 23 0 0.0 0.0 4.87 0.00 0.00 76 1026.4
20191207062344 23 0 0.0 0.0 4.87 0.00 0.00 77 1026.3
20191207061844 23 0 0.0 0.0 4.87 0.00 0.00 78 1026.4
20191207061344 23 0 0.0 0.0 4.87 0.00 0.00 79 1026.3
20191207060845 22 0 0.0 0.0 4.87 0.00 0.00 80 1026.4
20191207060344 22 0 0.0 0.0 4.87 0.00 0.00 82 1026.5
20191207055844 22 0 0.0 0.0 4.87 0.00 0.00 84 1026.4
20191207055344 22 0 0.0 0.0 4.87 0.00 0.00 85 1026.4
20191207054844 21 0 0.0 0.0 4.87 0.00 0.00 86 1026.4
20191207054344 21 0 0.0 0.0 4.87 0.00 0.00 90 1026.5
20191207053845 21 0 0.0 0.0 4.87 0.00 0.00 90 1026.5
20191207053344 21 0 0.0 0.0 4.87 0.00 0.00 90 1026.5
20191207052844 21 0 0.0 0.0 4.87 0.00 0.00 89 1026.5
20191207052344 21 0 0.0 0.0 4.87 0.00 0.00 90 1026.4
20191207051844 21 0 0.0 0.0 4.87 0.00 0.00 90 1026.4
20191207051344 21 0 0.0 0.0 4.87 0.00 0.00 90 1026.5
20191207050845 21 0 0.0 0.0 4.87 0.00 0.00 91 1026.6
20191207050344 21 0 0.0 0.0 4.87 0.00 0.00 91 1026.8
20191207045845 21 0 0.0 0.0 4.87 0.00 0.00 91 1026.8
20191207045344 21 0 0.0 0.0 4.87 0.00 0.00 91 1026.8
20191207044844 21 0 0.0 0.0 4.87 0.00 0.00 91 1026.9
20191207044344 21 0 0.0 0.0 4.87 0.00 0.00 91 1026.9
20191207043844 21 0 0.0 0.0 4.87 0.00 0.00 91 1026.8
20191207043344 21 0 0.0 0.0 4.87 0.00 0.00 91 1026.7
20191207042845 21 0 0.0 0.0 4.87 0.00 0.00 91 1026.6
20191207042344 21 0 0.0 0.0 4.87 0.00 0.00 91 1026.5
20191207041844 21 0 0.0 0.0 4.87 0.00 0.00 91 1026.1
20191207041345 21 0 0.0 0.0 4.87 0.00 0.00 91 1025.9
20191207040845 22 0 0.0 0.0 4.87 0.00 0.00 92 1025.9
20191207040344 22 0 0.0 0.0 4.87 0.00 0.00 92 1025.8
20191207035844 22 0 0.0 0.0 4.87 0.00 0.00 92 1025.8
20191207035344 22 0 0.0 0.0 4.87 0.00 0.00 92 1025.7
20191207034844 22 0 0.0 0.0 4.87 0.00 0.00 92 1025.8
20191207034344 22 0 0.0 0.0 4.87 0.00 0.00 93 1025.8
20191207033845 22 0 0.0 0.0 4.87 0.00 0.00 93 1025.8
20191207033344 22 0 0.0 0.0 4.87 0.00 0.00 93 1025.8
20191207032844 22 0 0.0 0.0 4.87 0.00 0.00 93 1025.8
20191207032344 22 0 0.0 0.0 4.87 0.00 0.00 93 1025.9
20191207031844 22 0 0.0 0.0 4.87 0.00 0.00 93 1026.0
20191207031344 22 0 0.0 0.0 4.87 0.00 0.00 93 1026.0
20191207030845 22 0 0.0 0.0 4.87 0.00 0.00 93 1026.0
20191207030344 22 0 0.0 0.0 4.87 0.00 0.00 93 1025.9
20191207025844 22 0 0.0 0.0 4.87 0.00 0.00 93 1026.0
20191207025344 22 0 0.0 0.0 4.87 0.00 0.00 93 1026.0
20191207024844 22 0 0.0 0.0 4.87 0.00 0.00 93 1026.0
20191207024344 22 0 0.0 0.0 4.87 0.00 0.00 93 1026.1
20191207023847 22 0 0.0 0.0 4.87 0.00 0.00 93 1026.0
20191207023346 22 0 0.0 0.0 4.87 0.00 0.00 93 1025.9
20191207022845 23 0 0.0 0.0 4.87 0.00 0.00 93 1025.8
20191207022344 23 0 0.0 0.0 4.87 0.00 0.00 92 1025.6
20191207021845 23 0 0.0 0.0 4.87 0.00 0.00 93 1025.3
20191207021347 23 0 0.0 0.0 4.87 0.00 0.00 92 1025.0
20191207020845 23 0 0.0 0.0 4.87 0.00 0.00 92 1024.9
20191207020344 23 0 0.0 0.0 4.87 0.00 0.00 92 1025.0
20191207015844 23 0 0.0 0.0 4.87 0.00 0.00 92 1025.0
20191207015345 23 0 0.0 0.0 4.87 0.00 0.00 92 1025.0
20191207014845 23 0 0.0 0.0 4.87 0.00 0.00 92 1025.0
20191207014345 23 0 0.0 0.0 4.87 0.00 0.00 91 1025.0
20191207013845 23 0 0.0 0.0 4.87 0.00 0.00 91 1025.2
20191207013345 24 0 0.0 0.0 4.87 0.00 0.00 91 1025.2
20191207012847 23 0 0.0 0.0 4.87 0.00 0.00 91 1025.3
20191207012345 23 0 0.0 0.0 4.87 0.00 0.00 91 1025.3
20191207011845 24 0 0.0 0.0 4.87 0.00 0.00 90 1025.3
20191207011345 24 0 0.0 0.0 4.87 0.00 0.00 90 1025.3
20191207010845 24 0 0.0 0.0 4.87 0.00 0.00 90 1025.4
20191207010345 24 0 0.0 0.0 4.87 0.00 0.00 90 1025.4
20191207005845 24 0 0.0 0.0 4.87 0.00 0.00 91 1025.2
20191207005345 24 0 0.0 0.0 4.87 0.00 0.00 90 1025.2
20191207004846 24 0 0.0 0.0 4.87 0.00 0.00 91 1024.9
20191207004345 24 0 0.0 0.0 4.87 0.00 0.00 90 1024.8
20191207004152 24 0 0.0 0.0 4.87 0.00 0.00 89 1024.7
20191207003845 24 0 0.0 0.0 4.87 0.00 0.00 89 1024.7
20191207003345 25 0 0.0 0.0 4.87 0.00 0.00 90 1024.8
20191207002845 24 0 0.0 0.0 4.87 0.00 0.00 89 1024.8
20191207002345 25 0 0.0 0.0 4.87 0.00 0.00 89 1024.8
20191207001845 26 0 0.0 0.0 4.87 0.00 0.00 90 1024.9
20191207001509 26 0 0.0 0.0 4.87 0.00 0.00 90 1024.9
20191207001345 26 0 0.0 0.0 4.87 0.00 0.00 90 1024.9
20191207000845 26 0 0.0 0.0 4.87 0.00 0.00 90 1024.8
20191207000431 26 0 0.0 0.0 4.87 0.00 0.00 90 1024.9
20191207000345 26 0 0.0 0.0 4.87 0.00 0.00 90 1024.9
20191206235845 26 0 0.0 0.0 4.87 0.00 0.00 91 1025.0
20191206235345 26 0 0.0 0.0 4.87 0.00 0.00 91 1024.9
20191206234845 26 0 0.0 0.0 4.87 0.00 0.00 92 1024.8
20191206234345 26 0 0.0 0.0 4.87 0.00 0.00 92 1024.7
20191206233845 26 0 0.0 0.0 4.87 0.00 0.00 93 1024.7
20191206233345 26 0 0.0 0.0 4.87 0.00 0.00 92 1024.5
20191206232845 26 0 0.0 0.0 4.87 0.00 0.00 93 1024.2
20191206232346 26 0 0.0 0.0 4.87 0.00 0.00 93 1023.8
20191206231845 26 0 0.0 0.0 4.87 0.00 0.00 94 1023.7
20191206231345 26 0 0.0 0.0 4.87 0.00 0.00 94 1023.6
20191206230845 27 0 0.0 0.0 4.87 0.00 0.00 95 1023.7
20191206230345 27 0 0.0 0.0 4.87 0.00 0.00 96 1023.8
20191206225845 27 0 0.0 0.0 4.87 0.00 0.00 96 1023.8
20191206225345 27 0 0.0 0.0 4.87 0.00 0.00 96 1023.7
20191206224846 27 0 0.0 0.0 4.87 0.00 0.00 96 1023.7
20191206224346 27 0 0.0 0.0 4.87 0.00 0.00 96 1023.7
20191206223846 27 0 0.0 0.0 4.87 0.00 0.00 95 1023.7
20191206223345 27 0 0.0 0.0 4.87 0.00 0.00 94 1023.7
20191206222845 27 0 0.0 0.0 4.87 0.00 0.00 94 1023.7
20191206222345 27 0 0.0 0.0 4.87 0.00 0.00 94 1023.6
20191206221845 27 0 0.0 0.0 4.87 0.00 0.00 94 1023.4
20191206221345 26 0 0.0 0.0 4.87 0.00 0.00 93 1023.3
20191206220845 26 0 0.0 0.0 4.87 0.00 0.00 93 1023.0
20191206220345 26 0 0.0 0.0 4.87 0.00 0.00 93 1022.9
20191206215845 26 0 0.0 0.0 4.87 0.00 0.00 92 1022.8
20191206215345 26 0 0.0 0.0 4.87 0.00 0.00 92 1022.8
20191206214845 26 0 0.0 0.0 4.87 0.00 0.00 91 1022.8
20191206214346 26 0 0.0 0.0 4.87 0.00 0.00 91 1022.8
20191206213845 26 0 0.0 0.0 4.87 0.00 0.00 91 1022.8
20191206213345 26 0 0.0 0.0 4.87 0.00 0.00 90 1022.6
20191206212845 26 0 0.0 0.0 4.87 0.00 0.00 90 1022.6